Location: ????
(30.1475°N, 31.1342°E)
Time: 08:54:31
(UTC+00:00)

SL-24 R/B - RUBIN 2 - Pass Details

Date: 27 September 2022
Orbit: 600 x 995 km, 64.6° (Epoch: 28 November)

Event Time Altitude Azimuth Distance (km) Brightness Sun altitude
Rises 03:13:31 0° 206° (SSW) 3,031 6.8 -7.9°
Reaches altitude 10° 03:15:55 10° 207° (SSW) 2,067 6.0 -7.4°
Maximum altitude 03:20:32 88° 288° (WNW) 629 3.6 -6.4°
Drops below altitude 10° 03:24:55 10° 27° (NNE) 1,952 6.5 -5.5°
Sets 03:27:07 0° 28° (NNE) 2,847 7.4 -5.0°
